Weather History for Chetumal, Mexico

Change the Weather History Date:

Monday, March 11, 2013

  Actual Average Record
Temperature  
Mean Temperature 82 °F -  
Max Temperature 91 °F 84 °F 91 °F (2013)
Min Temperature 74 °F 73 °F 62 °F (1998)
Cooling Degree Days 18    
Growing Degree Days 32 (Base 50)    
Moisture  
Dew Point 72 °F    
Average Humidity 70    
Maximum Humidity 87    
Minimum Humidity 52    
Precipitation  
Precipitation 0.00 in - - ()
Sea Level Pressure  
Sea Level Pressure 29.85 in    
Wind  
Wind Speed 6 mph ()    
Max Wind Speed 17 mph    
Max Gust Speed -    
Visibility 6.4 miles    
Events      
Averages and records for this station are not official NWS values.
T = Trace of Precipitation, MM = Missing Value Source: Averaged Metar Reports

Daily Weather History Graph

Daily Weather History Graph

Search for Another Location

Airport:

Trip Planner

Search our weather history database for the weather conditions in past years. The results will help you decide how hot, cold, wet, or windy it might be!

Date:

Astronomy

Mar. 11, 2013 Rise Set
Actual Time 6:04 AM CST 6:02 PM CST
Civil Twilight 5:42 AM CST 6:23 PM CST
Nautical Twilight 5:17 AM CST 6:49 PM CST
Astronomical Twilight 4:51 AM CST 7:14 PM CST
Moon 5:42 AM CST (3/11) 6:05 PM CST (3/11)
Length of Visible Light 12h 41m
Length of Day
11h 57m
Waning Crescent, 0% of the Moon is Illuminated
Mar 11
Waning Crescent
Mar 11
New
Mar 19
First Quarter
Mar 27
Full
Apr 2
Last Quarter

Hourly Weather History & Observations

Time (CST) Temp. Heat Index Dew Point Humidity Pressure Visibility Wind Dir Wind Speed Gust Speed Precip Events Conditions
2:50 AM 78 °F - 75 °F 87% 29.81 in 5 mi ESE 4.5 mph - -   Overcast
5:45 AM 78 °F - 75 °F 87% 29.84 in 6 mi ESE 4.5 mph - -   Overcast
6:42 AM 78.8 °F - 68.0 °F 69% 29.84 in 6.0 mi Calm Calm - N/A   Mostly Cloudy
7:43 AM 78.8 °F - 68.0 °F 69% 29.86 in 6.0 mi Calm Calm - N/A   Scattered Clouds
8:47 AM 80.6 °F 83.9 °F 69.8 °F 70% 29.89 in 6.0 mi East 5.8 mph - N/A   Scattered Clouds
8:50 AM 84 °F - 74 °F 66% 29.90 in 6 mi SE 6.7 mph - -   Scattered Clouds
9:43 AM 80.6 °F 83.9 °F 69.8 °F 70% 29.89 in 7.0 mi East 12.7 mph - N/A   Scattered Clouds
10:42 AM 82.4 °F 87.2 °F 71.6 °F 70% 29.89 in 7.0 mi East 13.8 mph - N/A   Scattered Clouds
11:42 AM 82.4 °F 87.2 °F 71.6 °F 70% 29.89 in 7.0 mi East 11.5 mph - N/A   Scattered Clouds
11:50 AM 88 °F - 73 °F 52% 29.90 in 6 mi ESE 6.7 mph - -   Scattered Clouds
12:43 PM 84.2 °F 89.6 °F 71.6 °F 66% 29.85 in 7.0 mi East 16.1 mph - N/A   Scattered Clouds
1:42 PM 84.2 °F 89.6 °F 71.6 °F 66% 29.83 in 7.0 mi East 5.8 mph - N/A   Scattered Clouds
2:40 PM 84.2 °F 89.6 °F 71.6 °F 66% 29.82 in 7.0 mi East 11.5 mph - N/A   Haze
2:50 PM 89 °F - 74 °F 53% 29.82 in 6 mi East 6.7 mph - -   Scattered Clouds
3:40 PM 82.4 °F 87.2 °F 71.6 °F 70% 29.80 in 7.0 mi East 11.5 mph - N/A   Haze
4:40 PM 82.4 °F 87.2 °F 71.6 °F 70% 29.79 in 7.0 mi East 11.5 mph - N/A   Haze
5:40 PM 80.6 °F 83.9 °F 69.8 °F 70% 29.82 in 7.0 mi East 11.5 mph - N/A   Scattered Clouds
5:50 PM 83 °F - 74 °F 69% 29.83 in 6 mi ESE 6.7 mph - -   Scattered Clouds
6:40 PM 80.6 °F 83.2 °F 68.0 °F 65% 29.83 in 7.0 mi East 17.3 mph - N/A   Haze
7:40 PM 78.8 °F - 68.0 °F 69% 29.85 in 7.0 mi East 11.5 mph - N/A   Mostly Cloudy
8:40 PM 78.8 °F - 68.0 °F 69% 29.88 in 7.0 mi East 11.5 mph - N/A   Overcast
8:50 PM 80 °F - 74 °F 79% 29.90 in 5 mi ESE 4.5 mph - -   Scattered Clouds
11:50 PM 79 °F - 75 °F 83% 29.92 in 5 mi SSW 2.2 mph - -   Partly Cloudy